Tracking 29042 objects as of 22-Jun-2024
HD Live streaming from Space Station
objects crossing your sky now

JILIN-01 GAOFEN 4A

Track JILIN-01 GAOFEN 4A now!
10-day predictions


NORAD ID: 52388
Int'l Code: 2022-046A
Perigee: 497.6 km
Apogee: 521.8 km
Inclination: 97.5 °
Period: 94.7 minutes
Semi major axis: 6880 km
RCS: Unknown
Launch date: April 30, 2022
Source: People's Republic of China (PRC)
Launch site: Yellow Sea Launch Area, China (YSLA)
Your satellite tracking list
Your tracking list is empty




NASA's NSSDC Master Catalog

Two Line Element Set (TLE):
1 52388U 22046A   24173.91249783  .00013684  00000-0  61552-3 0  9994
2 52388  97.5035 260.9252 0017632  95.5498 264.7749 15.21088549118475
Source of the keplerian elements: AFSPC